EW8321 Weather Reports


time (UTC)temp
C
wind
direction
speed
KPH
gust
KPH
rain 1hr
cm
rain 24hr
cm
rain mn
cm
humidity
%
barometer
mb
20200803153604 21 0 0.0 3.2 0.00 0.03 0.03 87 1019.4
20200803153205 21 0 0.0 1.6 0.00 0.03 0.03 89 1019.6
20200803152804 20 0 0.0 1.6 0.00 0.03 0.03 89 1019.5
20200803152405 20 0 0.0 1.6 0.00 0.03 0.03 88 1019.4
20200803152005 20 0 0.0 6.4 0.00 0.03 0.03 88 1019.4
20200803151604 20 0 0.0 6.4 0.00 0.03 0.03 89 1019.5
20200803151205 20 0 0.0 3.2 0.00 0.03 0.03 88 1019.5
20200803150804 20 0 0.0 3.2 0.00 0.03 0.03 88 1019.4
20200803150405 20 336 1.6 4.8 0.00 0.03 0.03 88 1019.6
20200803150005 20 319 1.6 4.8 0.00 0.03 0.03 87 1019.6
20200803145605 20 295 1.6 3.2 0.00 0.03 0.03 88 1020.0
20200803145204 20 0 0.0 3.2 0.00 0.03 0.03 88 1020.0
20200803144805 21 0 0.0 1.6 0.00 0.03 0.03 90 1019.9
20200803144404 20 0 0.0 1.6 0.00 0.03 0.03 89 1019.9
20200803144005 20 0 0.0 4.8 0.00 0.03 0.03 90 1020.0
20200803143604 20 0 0.0 4.8 0.00 0.03 0.03 89 1019.9
20200803143204 20 0 0.0 4.8 0.00 0.03 0.03 89 1019.7
20200803142805 20 0 0.0 1.6 0.00 0.03 0.03 90 1019.6
20200803142404 20 0 0.0 1.6 0.00 0.03 0.03 89 1019.6
20200803142005 20 0 0.0 3.2 0.00 0.03 0.03 90 1019.6
20200803141605 20 0 0.0 3.2 0.00 0.03 0.03 93 1019.8
20200803141204 20 0 0.0 3.2 0.00 0.03 0.03 93 1019.7
20200803140805 20 0 0.0 1.6 0.00 0.03 0.03 93 1019.6
20200803140404 20 0 0.0 1.6 0.00 0.03 0.03 92 1019.5
20200803140005 20 0 0.0 0.0 0.00 0.03 0.03 92 1019.3
20200803135604 20 0 0.0 0.0 0.00 0.03 0.03 92 1019.3
20200803135205 20 0 0.0 0.0 0.00 0.03 0.03 92 1019.3
20200803134804 20 0 0.0 0.0 0.00 0.03 0.03 92 1019.3
20200803134405 20 0 0.0 0.0 0.00 0.03 0.03 92 1019.2
20200803134005 20 0 0.0 0.0 0.00 0.03 0.03 92 1019.2
20200803133604 20 0 0.0 0.0 0.00 0.03 0.03 92 1019.2
20200803133205 20 0 0.0 0.0 0.00 0.03 0.03 92 1019.1
20200803132805 20 0 0.0 0.0 0.00 0.03 0.03 92 1019.1
20200803132404 20 0 0.0 0.0 0.00 0.03 0.03 92 1019.1
20200803132005 20 0 0.0 0.0 0.00 0.03 0.03 92 1019.2
20200803131604 20 0 0.0 1.6 0.00 0.03 0.03 92 1019.1
20200803131204 20 0 0.0 1.6 0.00 0.03 0.03 92 1019.0
20200803130805 20 0 0.0 1.6 0.00 0.03 0.03 92 1019.0
20200803130404 20 0 0.0 0.0 0.00 0.03 0.03 92 1019.0
20200803130005 20 0 0.0 0.0 0.00 0.03 0.03 92 1018.9
20200803125604 20 0 0.0 0.0 0.00 0.03 0.03 92 1018.9
20200803125204 20 0 0.0 0.0 0.00 0.03 0.03 93 1018.9
20200803124805 20 0 0.0 0.0 0.00 0.03 0.03 93 1018.9
20200803124406 20 0 0.0 0.0 0.00 0.03 0.03 93 1018.8
20200803124005 20 0 0.0 0.0 0.00 0.03 0.03 93 1018.6
20200803123604 20 0 0.0 0.0 0.00 0.03 0.03 93 1018.6
20200803123205 20 0 0.0 0.0 0.00 0.03 0.03 92 1018.5
20200803122805 20 0 0.0 0.0 0.00 0.03 0.03 93 1018.6
20200803122404 20 0 0.0 0.0 0.00 0.03 0.03 93 1018.7
20200803122006 20 0 0.0 0.0 0.00 0.03 0.03 93 1018.6
20200803121604 20 0 0.0 0.0 0.00 0.03 0.03 93 1018.7
20200803121205 19 0 0.0 0.0 0.00 0.03 0.03 93 1018.6
20200803120804 19 0 0.0 0.0 0.00 0.03 0.03 92 1018.6
20200803120404 19 0 0.0 0.0 0.00 0.03 0.03 93 1018.6
20200803120005 19 0 0.0 0.0 0.00 0.03 0.03 93 1018.6
20200803115604 19 0 0.0 1.6 0.00 0.03 0.03 92 1018.6
20200803115205 19 0 0.0 1.6 0.00 0.03 0.03 92 1018.7
20200803114804 19 0 0.0 0.0 0.00 0.03 0.03 93 1018.7
20200803114405 19 0 0.0 0.0 0.00 0.03 0.03 93 1018.7
20200803114006 19 0 0.0 1.6 0.00 0.03 0.03 92 1018.7
20200803113604 19 0 0.0 1.6 0.00 0.03 0.03 92 1018.6
20200803113205 19 0 0.0 1.6 0.00 0.03 0.03 92 1018.6
20200803112804 19 0 0.0 1.6 0.00 0.03 0.03 92 1018.6
20200803112405 19 0 0.0 1.6 0.03 0.03 0.03 92 1018.6
20200803112005 19 0 0.0 1.6 0.03 0.03 0.03 92 1018.6
20200803111604 19 0 0.0 0.0 0.03 0.03 0.03 93 1018.5
20200803111205 19 0 0.0 0.0 0.03 0.03 0.03 92 1018.5
20200803110805 19 0 0.0 0.0 0.03 0.03 0.03 92 1018.5
20200803110404 19 0 0.0 0.0 0.03 0.03 0.03 92 1018.5
20200803110005 19 0 0.0 0.0 0.03 0.03 0.03 92 1018.5
20200803105605 19 0 0.0 0.0 0.03 0.03 0.03 92 1018.5
20200803105206 19 0 0.0 0.0 0.03 0.03 0.03 92 1018.4
20200803104804 19 0 0.0 0.0 0.03 0.03 0.03 92 1018.5
20200803104404 19 0 0.0 0.0 0.03 0.03 0.03 92 1018.4
20200803104005 19 0 0.0 0.0 0.03 0.03 0.03 92 1018.5
20200803103605 19 0 0.0 0.0 0.03 0.03 0.03 92 1018.4
20200803103204 19 0 0.0 0.0 0.03 0.03 0.03 92 1018.3
20200803102805 19 0 0.0 0.0 0.03 0.03 0.03 92 1018.2
20200803102404 19 0 0.0 0.0 0.00 0.00 0.00 92 1018.1
20200803102005 19 0 0.0 0.0 0.00 0.00 0.00 92 1018.0
20200803101604 19 0 0.0 0.0 0.00 0.00 0.00 92 1018.0
20200803101204 19 0 0.0 0.0 0.00 0.00 0.00 92 1018.0
20200803100805 19 0 0.0 0.0 0.00 0.00 0.00 92 1017.9
20200803100404 19 0 0.0 0.0 0.00 0.00 0.00 92 1017.9
20200803100005 19 0 0.0 0.0 0.00 0.00 0.00 92 1017.9
20200803095605 19 0 0.0 0.0 0.00 0.00 0.00 92 1017.9
20200803095204 19 0 0.0 0.0 0.00 0.00 0.00 92 1017.9
20200803094805 19 0 0.0 0.0 0.00 0.00 0.00 92 1017.9
20200803094405 19 0 0.0 0.0 0.00 0.00 0.00 92 1017.9
20200803094004 19 0 0.0 0.0 0.00 0.00 0.00 92 1017.9
20200803093605 19 0 0.0 0.0 0.00 0.00 0.00 92 1018.0
20200803093204 19 0 0.0 0.0 0.00 0.00 0.00 92 1018.0
20200803092804 19 0 0.0 0.0 0.00 0.00 0.00 92 1017.9
20200803092405 19 0 0.0 0.0 0.00 0.00 0.00 92 1017.9
20200803092005 19 0 0.0 0.0 0.00 0.00 0.00 92 1017.9
20200803091604 19 0 0.0 0.0 0.00 0.00 0.00 92 1017.9
20200803091205 19 0 0.0 0.0 0.00 0.00 0.00 92 1017.9
20200803090805 19 0 0.0 1.6 0.00 0.00 0.00 92 1018.0
20200803090405 19 0 0.0 1.6 0.00 0.00 0.00 92 1018.0
20200803090005 19 0 0.0 1.6 0.00 0.00 0.00 92 1018.1
20200803085604 19 0 0.0 0.0 0.00 0.00 0.00 92 1018.1
20200803085204 19 0 0.0 0.0 0.00 0.00 0.00 92 1017.9
20200803084805 19 0 0.0 0.0 0.00 0.00 0.00 92 1018.1
20200803084404 19 0 0.0 0.0 0.00 0.00 0.00 92 1018.2
20200803084004 19 0 0.0 0.0 0.00 0.00 0.00 92 1018.2
20200803083605 19 0 0.0 0.0 0.00 0.00 0.00 92 1018.1
20200803083204 19 0 0.0 0.0 0.00 0.00 0.00 92 1018.2
20200803082804 19 0 0.0 1.6 0.00 0.00 0.00 92 1018.2
20200803082404 19 0 0.0 1.6 0.00 0.00 0.00 92 1018.1
20200803082004 19 0 0.0 1.6 0.00 0.00 0.00 92 1018.1
20200803081605 19 0 0.0 0.0 0.00 0.00 0.00 92 1018.2
20200803081204 19 0 0.0 0.0 0.00 0.00 0.00 92 1018.1
20200803080804 19 0 0.0 0.0 0.00 0.00 0.00 92 1018.1
20200803080405 19 0 0.0 0.0 0.00 0.00 0.00 92 1018.2
20200803080004 19 0 0.0 0.0 0.00 0.00 0.00 92 1018.1
20200803075605 19 0 0.0 1.6 0.00 0.00 0.00 92 1018.2
20200803075204 19 0 0.0 1.6 0.00 0.00 0.00 92 1018.3
20200803074804 19 0 0.0 0.0 0.00 0.00 0.00 92 1018.2
20200803074405 19 0 0.0 1.6 0.00 0.00 0.00 92 1018.2
20200803074004 19 0 0.0 1.6 0.00 0.00 0.00 92 1018.2
20200803073604 19 0 0.0 0.0 0.00 0.00 0.00 92 1018.2
20200803073205 19 0 0.0 0.0 0.00 0.00 0.00 92 1018.1
20200803072804 19 0 0.0 0.0 0.00 0.00 0.00 92 1018.1
20200803072404 19 0 0.0 0.0 0.00 0.00 0.00 92 1018.2
20200803072005 19 0 0.0 0.0 0.00 0.00 0.00 92 1018.2
20200803071604 19 0 0.0 0.0 0.00 0.00 0.00 92 1018.2
20200803071204 19 0 0.0 0.0 0.00 0.00 0.00 92 1018.2
20200803070805 19 0 0.0 0.0 0.00 0.00 0.00 92 1018.2
20200803070404 19 0 0.0 0.0 0.00 0.00 0.00 92 1018.2
20200803070005 19 0 0.0 0.0 0.00 0.00 0.00 92 1018.3
20200803065605 19 0 0.0 0.0 0.00 0.00 0.00 92 1018.3
20200803065204 19 0 0.0 0.0 0.00 0.00 0.00 92 1018.3
20200803064805 19 0 0.0 0.0 0.00 0.00 0.00 92 1018.4
20200803064404 19 0 0.0 0.0 0.00 0.00 0.00 92 1018.3
20200803064004 19 0 0.0 1.6 0.00 0.00 0.00 92 1018.4
20200803063604 19 0 0.0 1.6 0.00 0.00 0.00 92 1018.4
20200803063204 19 0 0.0 1.6 0.00 0.00 0.00 92 1018.4
20200803062805 19 0 0.0 1.6 0.00 0.00 0.00 92 1018.3
20200803062404 19 0 0.0 1.6 0.00 0.00 0.00 92 1018.3
20200803062004 19 0 0.0 1.6 0.00 0.00 0.00 92 1018.3
20200803061605 19 0 0.0 1.6 0.00 0.00 0.00 92 1018.3
20200803061204 19 0 0.0 1.6 0.00 0.00 0.00 92 1018.2
20200803060804 19 0 0.0 1.6 0.00 0.00 0.00 92 1018.2
20200803060405 19 0 0.0 1.6 0.00 0.00 0.00 92 1018.2
20200803060005 19 0 0.0 1.6 0.00 0.00 0.00 92 1018.2
20200803055604 19 0 0.0 1.6 0.00 0.00 0.00 92 1018.1
20200803055205 19 0 0.0 1.6 0.00 0.00 0.00 92 1018.1
20200803054804 19 0 0.0 1.6 0.00 0.00 0.00 92 1018.2
20200803054404 19 0 0.0 0.0 0.00 0.00 0.00 92 1018.1
20200803054005 19 0 0.0 0.0 0.00 0.00 0.00 92 1018.2
20200803053604 19 0 0.0 0.0 0.00 0.00 0.00 93 1018.2
20200803053204 19 0 0.0 0.0 0.00 0.00 0.00 93 1018.2
20200803052804 19 0 0.0 0.0 0.00 0.00 0.00 93 1018.3
20200803052404 19 0 0.0 0.0 0.00 0.00 0.00 93 1018.3
20200803052005 19 0 0.0 1.6 0.00 0.00 0.00 93 1018.2
20200803051604 19 0 0.0 1.6 0.00 0.00 0.00 93 1018.3
20200803051205 19 0 0.0 1.6 0.00 0.00 0.00 93 1018.3
20200803050804 19 0 0.0 0.0 0.00 0.00 0.00 93 1018.3
20200803050404 19 0 0.0 0.0 0.00 0.00 0.00 93 1018.4
20200803050004 19 0 0.0 0.0 0.00 0.00 0.00 93 1018.3
20200803045604 19 0 0.0 0.0 0.00 0.00 0.00 93 1018.4
20200803045205 19 0 0.0 0.0 0.00 0.00 0.00 93 1018.4
20200803044804 19 0 0.0 0.0 0.00 0.00 0.00 93 1018.4
20200803044404 19 0 0.0 0.0 0.00 0.00 0.00 93 1018.6
20200803044004 19 0 0.0 0.0 0.00 0.00 0.00 93 1018.5
20200803043605 19 0 0.0 0.0 0.00 0.00 0.00 93 1018.5
20200803043212 19 0 0.0 0.0 0.00 0.00 0.00 93 1018.5
20200803042804 19 0 0.0 0.0 0.00 0.00 0.00 93 1018.5
20200803042405 19 0 0.0 0.0 0.00 0.00 0.00 93 1018.5
20200803042004 19 0 0.0 1.6 0.00 0.00 0.00 93 1018.4
20200803041605 19 0 0.0 1.6 0.00 0.00 0.00 93 1018.5
20200803041204 19 0 0.0 1.6 0.00 0.00 0.00 93 1018.5
20200803040804 19 0 0.0 0.0 0.00 0.00 0.00 93 1018.5
20200803040404 19 0 0.0 0.0 0.00 0.00 0.00 93 1018.5
20200803040005 20 0 0.0 0.0 0.00 0.00 0.00 93 1018.5
20200803035604 20 0 0.0 0.0 0.00 0.00 0.00 93 1018.5
20200803035205 20 0 0.0 0.0 0.00 0.00 0.00 93 1018.6
20200803034804 20 0 0.0 1.6 0.00 0.00 0.00 93 1018.6
20200803034404 20 0 0.0 1.6 0.00 0.00 0.00 93 1018.6
20200803034004 20 0 0.0 1.6 0.00 0.00 0.00 93 1018.7
20200803033604 20 0 0.0 1.6 0.00 0.00 0.00 90 1018.6
20200803033204 20 0 0.0 1.6 0.00 0.00 0.00 90 1018.5
20200803032804 20 0 0.0 1.6 0.00 0.00 0.00 90 1018.6
20200803032404 20 0 0.0 0.0 0.00 0.00 0.00 90 1018.6
20200803032004 20 0 0.0 0.0 0.00 0.00 0.00 90 1018.7
20200803031604 20 0 0.0 0.0 0.00 0.00 0.00 90 1018.7
20200803031204 20 0 0.0 0.0 0.00 0.00 0.00 90 1018.6
20200803030804 20 0 0.0 0.0 0.00 0.00 0.00 90 1018.7
20200803030404 20 0 0.0 0.0 0.00 0.00 0.00 90 1018.7
20200803030006 20 0 0.0 0.0 0.00 0.00 0.00 90 1018.7
20200803025604 20 0 0.0 0.0 0.00 0.00 0.00 90 1018.6
20200803025205 20 0 0.0 0.0 0.00 0.00 0.00 90 1018.7
20200803024803 20 0 0.0 0.0 0.00 0.00 0.00 89 1018.7
20200803024404 20 0 0.0 0.0 0.00 0.00 0.00 89 1018.6
20200803024004 20 0 0.0 0.0 0.00 0.00 0.00 90 1018.5
20200803023604 20 0 0.0 0.0 0.00 0.00 0.00 90 1018.6
20200803023204 20 0 0.0 0.0 0.00 0.00 0.00 90 1018.7
20200803022804 20 0 0.0 0.0 0.00 0.00 0.00 89 1018.5
20200803022404 20 0 0.0 0.0 0.00 0.00 0.00 89 1018.5
20200803022005 20 0 0.0 0.0 0.00 0.00 0.00 89 1018.5
20200803021604 21 0 0.0 0.0 0.00 0.00 0.00 89 1018.6
20200803021204 21 0 0.0 1.6 0.00 0.00 0.00 89 1018.7
20200803020804 21 0 0.0 1.6 0.00 0.00 0.00 89 1018.6
20200803020404 21 0 0.0 1.6 0.00 0.00 0.00 89 1018.6
20200803020005 21 0 0.0 0.0 0.00 0.00 0.00 89 1018.5
20200803015604 21 0 0.0 0.0 0.00 0.00 0.00 89 1018.5
20200803015204 21 0 0.0 0.0 0.00 0.00 0.00 89 1018.3
20200803014804 21 0 0.0 0.0 0.00 0.00 0.00 89 1018.3
20200803014403 21 0 0.0 0.0 0.00 0.00 0.00 89 1018.3
20200803014004 21 0 0.0 0.0 0.00 0.00 0.00 89 1018.3
20200803013604 21 0 0.0 1.6 0.00 0.00 0.00 89 1018.3
20200803013204 21 0 0.0 1.6 0.00 0.00 0.00 89 1018.2
20200803012804 21 0 0.0 0.0 0.00 0.00 0.00 89 1018.2
20200803012403 21 0 0.0 0.0 0.00 0.00 0.00 88 1018.1
20200803012004 21 0 0.0 0.0 0.00 0.00 0.00 88 1018.0
20200803011604 21 0 0.0 0.0 0.00 0.00 0.00 88 1018.0
20200803011204 21 0 0.0 0.0 0.00 0.00 0.00 88 1017.9
20200803010804 22 0 0.0 0.0 0.00 0.00 0.00 88 1017.8
20200803010404 22 0 0.0 1.6 0.00 0.00 0.00 88 1017.8
20200803010004 22 0 0.0 1.6 0.00 0.00 0.00 88 1017.9
20200803005604 22 0 0.0 1.6 0.00 0.00 0.00 87 1017.9
20200803005204 22 0 0.0 0.0 0.00 0.00 0.00 87 1017.9
20200803004804 22 0 0.0 1.6 0.00 0.00 0.00 87 1017.8
20200803004405 22 0 0.0 1.6 0.00 0.00 0.00 87 1017.9
20200803004004 22 0 0.0 1.6 0.00 0.00 0.00 87 1017.8
20200803003603 22 0 0.0 1.6 0.00 0.00 0.00 86 1017.8
20200803003204 23 0 0.0 1.6 0.00 0.00 0.00 86 1017.8
20200803002804 23 0 0.0 1.6 0.00 0.00 0.00 86 1017.8
20200803002404 23 0 0.0 1.6 0.00 0.00 0.00 86 1017.7
20200803002004 23 0 0.0 1.6 0.00 0.00 0.00 85 1017.8
20200803001604 23 0 0.0 1.6 0.00 0.00 0.00 85 1017.8
20200803001204 23 0 0.0 1.6 0.00 0.00 0.00 85 1017.8
20200803000808 23 0 0.0 0.0 0.00 0.00 0.00 84 1017.9
20200803000404 24 0 0.0 1.6 0.00 0.00 0.00 83 1017.8
20200803000004 24 0 0.0 1.6 0.00 0.00 0.00 83 1017.8
20200802235604 24 0 0.0 1.6 0.00 0.00 0.00 83 1017.7
20200802235204 25 0 0.0 0.0 0.00 0.00 0.00 82 1017.7
20200802234803 25 0 0.0 1.6 0.00 0.00 0.00 82 1017.7
20200802234404 25 0 0.0 1.6 0.00 0.00 0.00 80 1017.6
20200802234004 25 0 0.0 0.0 0.00 0.00 0.00 78 1017.5
20200802233605 25 0 0.0 0.0 0.00 0.00 0.00 76 1017.5
20200802233204 25 0 0.0 0.0 0.00 0.00 0.00 76 1017.4
20200802232804 25 0 0.0 0.0 0.00 0.00 0.00 76 1017.5
20200802232404 25 0 0.0 0.0 0.00 0.00 0.00 76 1017.4
20200802232004 25 0 0.0 1.6 0.00 0.00 0.00 75 1017.4
20200802231604 25 0 0.0 1.6 0.00 0.00 0.00 74 1017.5
20200802231204 25 0 0.0 0.0 0.00 0.00 0.00 78 1017.5
20200802230804 25 0 0.0 1.6 0.00 0.00 0.00 79 1017.4
20200802230404 25 0 0.0 1.6 0.00 0.00 0.00 79 1017.4
20200802230004 25 0 0.0 1.6 0.00 0.00 0.00 78 1017.3
20200802225604 25 0 0.0 1.6 0.00 0.00 0.00 78 1017.4
20200802225204 25 0 0.0 3.2 0.00 0.00 0.00 80 1017.2
20200802224804 25 0 0.0 3.2 0.00 0.00 0.00 80 1017.2
20200802224404 25 0 0.0 1.6 0.00 0.00 0.00 81 1017.2
20200802224004 25 0 0.0 1.6 0.00 0.00 0.00 81 1017.2
20200802223604 25 0 0.0 0.0 0.00 0.00 0.00 81 1017.2
20200802223203 25 0 0.0 3.2 0.00 0.00 0.00 81 1017.2
20200802222804 25 0 0.0 3.2 0.00 0.00 0.00 80 1017.4
20200802222404 25 0 0.0 3.2 0.00 0.00 0.00 80 1017.4
20200802222004 25 0 0.0 0.0 0.00 0.00 0.00 79 1017.4
20200802221604 25 0 0.0 1.6 0.00 0.00 0.00 77 1017.3
20200802221206 25 0 0.0 1.6 0.00 0.00 0.00 77 1017.2
20200802220804 25 0 0.0 1.6 0.00 0.00 0.00 78 1017.4
20200802220405 25 0 0.0 0.0 0.00 0.00 0.00 78 1017.4
20200802220004 25 0 0.0 0.0 0.00 0.00 0.00 77 1017.3
20200802215604 25 0 0.0 0.0 0.00 0.00 0.00 76 1017.2
20200802215203 25 0 0.0 1.6 0.00 0.00 0.00 76 1017.2
20200802214804 25 0 0.0 1.6 0.00 0.00 0.00 77 1017.3
20200802214404 25 0 0.0 1.6 0.00 0.00 0.00 77 1017.3
20200802214004 24 0 0.0 1.6 0.00 0.00 0.00 77 1017.3
20200802213606 24 0 0.0 1.6 0.00 0.00 0.00 78 1017.3
20200802213205 24 0 0.0 1.6 0.00 0.00 0.00 78 1017.3
20200802212804 24 0 0.0 1.6 0.00 0.00 0.00 78 1017.4
20200802212404 24 0 0.0 1.6 0.00 0.00 0.00 78 1017.4
20200802212003 24 0 0.0 1.6 0.00 0.00 0.00 77 1017.5
20200802211604 24 0 0.0 0.0 0.00 0.00 0.00 76 1017.5
20200802211204 25 0 0.0 0.0 0.00 0.00 0.00 75 1017.5
20200802210804 25 0 0.0 1.6 0.00 0.00 0.00 75 1017.4
20200802210404 25 0 0.0 1.6 0.00 0.00 0.00 73 1017.5
20200802210003 26 0 0.0 1.6 0.00 0.00 0.00 71 1017.4
20200802205604 26 0 0.0 1.6 0.00 0.00 0.00 70 1017.4
20200802205204 27 0 0.0 1.6 0.00 0.00 0.00 68 1017.4
20200802204803 27 0 0.0 1.6 0.00 0.00 0.00 70 1017.4
20200802204404 27 0 0.0 1.6 0.00 0.00 0.00 69 1017.5
20200802204004 27 0 0.0 0.0 0.00 0.00 0.00 69 1017.4
20200802203603 27 0 0.0 0.0 0.00 0.00 0.00 68 1017.2
20200802203204 27 0 0.0 0.0 0.00 0.00 0.00 67 1017.3
20200802202803 27 0 0.0 0.0 0.00 0.00 0.00 68 1017.4
20200802202404 27 0 0.0 1.6 0.00 0.00 0.00 66 1017.3
20200802202004 27 0 0.0 1.6 0.00 0.00 0.00 65 1017.3
20200802201603 28 0 0.0 3.2 0.00 0.00 0.00 65 1017.4
20200802201204 28 0 0.0 3.2 0.00 0.00 0.00 64 1017.4
20200802200803 28 0 0.0 1.6 0.00 0.00 0.00 63 1017.4
20200802200404 29 0 0.0 1.6 0.00 0.00 0.00 61 1017.5
20200802200003 29 222 1.6 1.6 0.00 0.00 0.00 62 1017.4
20200802195604 29 218 1.6 1.6 0.00 0.00 0.00 61 1017.4
20200802195204 28 0 0.0 3.2 0.00 0.00 0.00 62 1017.4
20200802194803 28 0 0.0 3.2 0.00 0.00 0.00 63 1017.5
20200802194404 28 0 0.0 0.0 0.00 0.00 0.00 64 1017.4
20200802194003 28 0 0.0 0.0 0.00 0.00 0.00 66 1017.5
20200802193604 27 0 0.0 1.6 0.00 0.00 0.00 65 1017.6
20200802193203 27 0 0.0 1.6 0.00 0.00 0.00 67 1017.6
20200802192804 27 0 0.0 0.0 0.00 0.00 0.00 68 1017.8
20200802192404 27 0 0.0 0.0 0.00 0.00 0.00 66 1017.7
20200802192003 27 0 0.0 0.0 0.00 0.00 0.00 69 1017.7
20200802191605 27 0 0.0 0.0 0.00 0.00 0.00 68 1017.7
20200802191203 27 0 0.0 0.0 0.00 0.00 0.00 66 1017.6
20200802190804 27 0 0.0 0.0 0.00 0.00 0.00 66 1017.7
20200802190403 27 0 0.0 0.0 0.00 0.00 0.00 62 1017.7
20200802190004 28 0 0.0 1.6 0.00 0.00 0.00 62 1017.8
20200802185604 28 0 0.0 1.6 0.00 0.00 0.00 63 1017.8
20200802185204 28 0 0.0 1.6 0.00 0.00 0.00 64 1017.7
20200802184803 28 0 0.0 3.2 0.00 0.00 0.00 64 1017.8
20200802184404 27 0 0.0 3.2 0.00 0.00 0.00 67 1017.9
20200802184003 27 0 0.0 3.2 0.00 0.00 0.00 66 1017.7
20200802183604 27 0 0.0 1.6 0.00 0.00 0.00 63 1017.8
20200802183204 28 0 0.0 0.0 0.00 0.00 0.00 61 1017.8
20200802182804 28 0 0.0 1.6 0.00 0.00 0.00 62 1017.9
20200802182403 28 0 0.0 1.6 0.00 0.00 0.00 60 1017.8
20200802182004 27 0 0.0 1.6 0.00 0.00 0.00 68 1018.0
20200802181604 27 0 0.0 1.6 0.00 0.00 0.00 69 1018.0
20200802181203 27 0 0.0 1.6 0.00 0.00 0.00 71 1018.1
20200802180804 27 0 0.0 1.6 0.00 0.00 0.00 65 1017.9
20200802180403 27 0 0.0 1.6 0.00 0.00 0.00 62 1018.0
20200802180004 27 0 0.0 1.6 0.00 0.00 0.00 60 1018.0
20200802175603 27 0 0.0 1.6 0.00 0.00 0.00 60 1018.0
20200802175204 28 0 0.0 1.6 0.00 0.00 0.00 62 1018.1
20200802174803 28 0 0.0 1.6 0.00 0.00 0.00 62 1018.1
20200802174404 28 0 0.0 3.2 0.00 0.00 0.00 61 1018.0
20200802174004 28 267 1.6 4.8 0.00 0.00 0.00 59 1017.9
20200802173603 28 255 1.6 4.8 0.00 0.00 0.00 56 1018.0
20200802173204 28 250 1.6 4.8 0.00 0.00 0.00 57 1018.0
20200802172803 27 0 0.0 3.2 0.00 0.00 0.00 58 1018.1
20200802172403 27 0 0.0 3.2 0.00 0.00 0.00 60 1018.0
20200802172004 27 0 0.0 3.2 0.00 0.00 0.00 60 1018.0
20200802171603 27 0 0.0 3.2 0.00 0.00 0.00 61 1018.0
20200802171204 27 0 0.0 3.2 0.00 0.00 0.00 63 1018.1
20200802170803 27 0 0.0 3.2 0.00 0.00 0.00 62 1018.1
20200802170403 27 0 0.0 1.6 0.00 0.00 0.00 62 1018.1
20200802170004 27 0 0.0 3.2 0.00 0.00 0.00 61 1018.2
20200802165603 26 0 0.0 4.8 0.00 0.00 0.00 64 1018.1
20200802165205 26 0 0.0 4.8 0.00 0.00 0.00 59 1018.1
20200802164804 26 0 0.0 3.2 0.00 0.00 0.00 64 1018.2
20200802164403 26 0 0.0 3.2 0.00 0.00 0.00 62 1018.3
20200802164004 26 255 1.6 4.8 0.00 0.00 0.00 63 1018.4
20200802163603 26 237 1.6 4.8 0.00 0.00 0.00 63 1018.4
20200802163203 26 0 0.0 4.8 0.00 0.00 0.00 64 1018.2
20200802162804 26 0 0.0 1.6 0.00 0.00 0.00 66 1018.2
20200802162403 26 0 0.0 1.6 0.00 0.00 0.00 72 1018.4
20200802162004 26 0 0.0 1.6 0.00 0.00 0.00 70 1018.3
20200802161604 25 0 0.0 1.6 0.00 0.00 0.00 68 1018.2
20200802161203 25 0 0.0 1.6 0.00 0.00 0.00 70 1018.4
20200802160804 25 0 0.0 0.0 0.00 0.00 0.00 70 1018.4
20200802160403 25 0 0.0 0.0 0.00 0.00 0.00 70 1018.4
20200802160004 25 0 0.0 0.0 0.00 0.00 0.00 74 1018.4
20200802155603 25 0 0.0 0.0 0.00 0.00 0.00 70 1018.5
20200802155203 25 0 0.0 0.0 0.00 0.00 0.00 72 1018.4
20200802154804 25 0 0.0 1.6 0.00 0.00 0.00 73 1018.4
20200802154404 25 0 0.0 1.6 0.00 0.00 0.00 71 1018.3
20200802154005 25 0 0.0 0.0 0.00 0.00 0.00 73 1018.4